Weather History for Madison, SD

Change the Weather History Date:

Friday, January 31, 2014

  Actual Average Record
Temperature  
Mean Temperature 6 °F -  
Max Temperature 17 °F 24 °F 42 °F (2012)
Min Temperature -4 °F 5 °F -9 °F (2013)
Degree Days  
Heating Degree Days 58    
Moisture  
Dew Point 3 °F    
Average Humidity 90    
Maximum Humidity 100    
Minimum Humidity 68    
Precipitation  
Precipitation 0.00 in - - ()
Sea Level Pressure  
Sea Level Pressure 29.97 in    
Wind  
Wind Speed 7 mph (SSW)    
Max Wind Speed 17 mph    
Max Gust Speed 18 mph    
Visibility 10 miles    
Events      
Averages and records for this station are not official NWS values.
T = Trace of Precipitation, MM = Missing Value Source: NWS Daily Summary

Daily Weather History Graph

Daily Weather History Graph

Search for Another Location

Airport:

Trip Planner

Search our weather history database for the weather conditions in past years. The results will help you decide how hot, cold, wet, or windy it might be!

Date:

Astronomy

Jan. 31, 2014 Rise Set
Actual Time 7:46 AM CST 5:37 PM CST
Civil Twilight 7:16 AM CST 6:08 PM CST
Nautical Twilight 6:41 AM CST 6:42 PM CST
Astronomical Twilight 6:07 AM CST 7:16 PM CST
Moon 7:53 AM CST (1/31) 7:07 PM CST (1/31)
Length of Visible Light 10h 52m
Length of Day
9h 50m
New Moon, 1% of the Moon is Illuminated
Jan 31
New Moon
Feb 6
First Quarter
Feb 14
Full
Feb 22
Last Quarter
Mar 1
New

Hourly Weather History & Observations

Time (CST) Temp. Windchill Dew Point Humidity Pressure Visibility Wind Dir Wind Speed Gust Speed Precip Events Conditions
12:05 AM -2.2 °F -14.2 °F -4.0 °F 92% 30.03 in 10.0 mi WNW 5.8 mph - N/A   Clear
12:25 AM -4.0 °F -17.8 °F -5.8 °F 92% 30.03 in 10.0 mi NW 6.9 mph - N/A   Clear
12:45 AM -2.2 °F -14.2 °F -2.2 °F 100% 30.03 in 10.0 mi WNW 5.8 mph - N/A   Clear
1:05 AM -0.4 °F -12.0 °F -2.2 °F 92% 30.04 in 10.0 mi WNW 5.8 mph - N/A   Clear
1:25 AM -0.4 °F - -2.2 °F 92% 30.04 in 10.0 mi Calm Calm - N/A   Clear
1:45 AM -0.4 °F - -2.2 °F 92% 30.03 in 10.0 mi Calm Calm - N/A   Clear
2:05 AM -4.0 °F -12.4 °F -4.0 °F 100% 30.03 in 10.0 mi NW 3.5 mph - N/A   Clear
2:25 AM -2.2 °F -10.4 °F -4.0 °F 92% 30.02 in 10.0 mi NNW 3.5 mph - N/A   Clear
2:45 AM -4.0 °F - -7.6 °F 85% 30.02 in 10.0 mi Calm Calm - N/A   Clear
3:05 AM -2.2 °F - -4.0 °F 92% 30.02 in 10.0 mi Calm Calm - N/A   Clear
3:25 AM -2.2 °F - -4.0 °F 92% 30.02 in 10.0 mi Calm Calm - N/A   Clear
3:45 AM -2.2 °F - -4.0 °F 92% 30.01 in 10.0 mi Calm Calm - N/A   Clear
4:05 AM -2.2 °F -12.5 °F -4.0 °F 92% 30.01 in 10.0 mi SSW 4.6 mph - N/A   Clear
4:25 AM -2.2 °F - -4.0 °F 92% 30.01 in 10.0 mi Calm Calm - N/A   Clear
4:45 AM -4.0 °F -16.3 °F -4.0 °F 100% 30.02 in 10.0 mi South 5.8 mph - N/A   Clear
5:05 AM -4.0 °F -12.4 °F -4.0 °F 100% 30.02 in 10.0 mi WSW 3.5 mph - N/A   Clear
5:25 AM -2.2 °F - -4.0 °F 92% 30.02 in 10.0 mi Calm Calm - N/A   Clear
5:45 AM -2.2 °F -12.5 °F -4.0 °F 92% 30.01 in 10.0 mi SSW 4.6 mph - N/A   Clear
6:05 AM -2.2 °F -10.4 °F -4.0 °F 92% 30.01 in 10.0 mi WSW 3.5 mph - N/A   Clear
6:25 AM -2.2 °F -10.4 °F -2.2 °F 100% 30.02 in 10.0 mi West 3.5 mph - N/A   Clear
6:45 AM -2.2 °F -15.6 °F -2.2 °F 100% 30.02 in 10.0 mi SW 6.9 mph - N/A   Clear
7:05 AM -2.2 °F - -4.0 °F 92% 30.01 in 10.0 mi Calm Calm - N/A   Clear
7:25 AM -2.2 °F - -2.2 °F 100% 30.01 in 10.0 mi Calm Calm - N/A   Clear
7:45 AM -2.2 °F -15.6 °F -4.0 °F 92% 30.02 in 10.0 mi SW 6.9 mph - N/A   Clear
8:05 AM -4.0 °F -22.1 °F -4.0 °F 100% 30.03 in 10.0 mi South 11.5 mph - N/A   Clear
8:25 AM -4.0 °F -20.2 °F -4.0 °F 100% 30.04 in 10.0 mi SSW 9.2 mph - N/A   Clear
8:45 AM -2.2 °F -15.6 °F -4.0 °F 92% 30.04 in 10.0 mi SSW 6.9 mph - N/A   Clear
9:05 AM -0.4 °F -14.7 °F -2.2 °F 92% 30.05 in 10.0 mi SSW 8.1 mph - N/A   Clear
9:25 AM 1.4 °F -12.5 °F -0.4 °F 92% 30.05 in 10.0 mi SSW 8.1 mph - N/A   Scattered Clouds
9:45 AM 3.2 °F -13.9 °F 1.4 °F 92% 30.04 in 10.0 mi SSW 12.7 mph - N/A   Clear
10:05 AM 5.0 °F -10.8 °F 1.4 °F 85% 30.04 in 10.0 mi SSW 11.5 mph - N/A   Clear
10:25 AM 5.0 °F -12.3 °F 3.2 °F 92% 30.03 in 10.0 mi SSW 13.8 mph - N/A   Clear
10:45 AM 6.8 °F -10.0 °F 5.0 °F 92% 30.04 in 10.0 mi SW 13.8 mph 18.4 mph N/A   Clear
11:05 AM 6.8 °F -10.0 °F 5.0 °F 92% 30.04 in 10.0 mi SW 13.8 mph - N/A   Partly Cloudy
11:25 AM 8.6 °F -7.7 °F 6.8 °F 92% 30.03 in 10.0 mi SW 13.8 mph - N/A   Mostly Cloudy
11:45 AM 8.6 °F -7.0 °F 6.8 °F 92% 30.02 in 10.0 mi WSW 12.7 mph - N/A   Mostly Cloudy
12:05 PM 8.6 °F -8.9 °F 8.6 °F 100% 30.00 in 10.0 mi SW 16.1 mph - N/A   Scattered Clouds
12:25 PM 8.6 °F -7.7 °F 8.6 °F 100% 29.99 in 10.0 mi SW 13.8 mph - N/A   Scattered Clouds
12:45 PM 10.4 °F -6.0 °F 6.8 °F 85% 29.99 in 10.0 mi WSW 15.0 mph - N/A   Partly Cloudy
1:05 PM 10.4 °F -4.1 °F 8.6 °F 92% 29.97 in 10.0 mi SW 11.5 mph - N/A   Clear
1:25 PM 10.4 °F -4.1 °F 8.6 °F 92% 29.96 in 10.0 mi SW 11.5 mph - N/A   Clear
1:45 PM 12.2 °F -1.8 °F 8.6 °F 85% 29.96 in 10.0 mi SW 11.5 mph - N/A   Clear
2:05 PM 14.0 °F 1.2 °F 8.6 °F 79% 29.95 in 10.0 mi SW 10.4 mph - N/A   Clear
2:25 PM 14.0 °F -0.2 °F 8.6 °F 79% 29.94 in 10.0 mi SW 12.7 mph - N/A   Clear
2:45 PM 14.0 °F -0.2 °F 8.6 °F 79% 29.93 in 10.0 mi SW 12.7 mph - N/A   Clear
3:05 PM 14.0 °F -0.8 °F 8.6 °F 79% 29.93 in 10.0 mi SW 13.8 mph - N/A   Clear
3:25 PM 14.0 °F 1.2 °F 6.8 °F 73% 29.92 in 10.0 mi SW 10.4 mph - N/A   Clear
3:45 PM 15.8 °F 3.4 °F 8.6 °F 73% 29.92 in 10.0 mi SSW 10.4 mph - N/A   Clear
4:05 PM 15.8 °F 4.2 °F 6.8 °F 68% 29.92 in 10.0 mi SSW 9.2 mph - N/A   Clear
4:25 PM 15.8 °F 5.1 °F 8.6 °F 73% 29.91 in 10.0 mi SSW 8.1 mph - N/A   Clear
4:45 PM 14.0 °F 2.0 °F 8.6 °F 79% 29.91 in 10.0 mi South 9.2 mph - N/A   Clear
5:05 PM 14.0 °F 3.9 °F 8.6 °F 79% 29.90 in 10.0 mi South 6.9 mph - N/A   Clear
5:25 PM 12.2 °F 0.7 °F 8.6 °F 85% 29.89 in 10.0 mi SSE 8.1 mph - N/A   Clear
5:45 PM 14.0 °F 5.1 °F 8.6 °F 79% 29.88 in 10.0 mi SSE 5.8 mph - N/A   Clear
6:05 PM 12.2 °F 1.7 °F 8.6 °F 85% 29.88 in 10.0 mi SSE 6.9 mph - N/A   Clear
6:25 PM 10.4 °F -1.5 °F 6.8 °F 85% 29.89 in 10.0 mi South 8.1 mph - N/A   Clear
6:45 PM 8.6 °F -3.7 °F 6.8 °F 92% 29.89 in 10.0 mi South 8.1 mph - N/A   Clear
7:05 PM 8.6 °F -2.6 °F 8.6 °F 100% 29.89 in 10.0 mi South 6.9 mph - N/A   Clear
7:25 PM 8.6 °F -1.3 °F 8.6 °F 100% 29.90 in 10.0 mi South 5.8 mph - N/A   Clear
7:45 PM 6.8 °F -5.9 °F 6.8 °F 100% 29.89 in 10.0 mi South 8.1 mph - N/A   Clear
8:05 PM 8.6 °F -3.7 °F 8.6 °F 100% 29.88 in 10.0 mi South 8.1 mph - N/A   Clear
8:25 PM 10.4 °F -3.3 °F 8.6 °F 92% 29.87 in 10.0 mi South 10.4 mph - N/A   Clear
8:45 PM 8.6 °F -6.3 °F 8.6 °F 100% 29.88 in 10.0 mi South 11.5 mph - N/A   Clear
9:05 PM 8.6 °F -3.7 °F 6.8 °F 92% 29.88 in 10.0 mi South 8.1 mph - N/A   Clear
9:25 PM 8.6 °F -6.3 °F 6.8 °F 92% 29.87 in 10.0 mi South 11.5 mph - N/A   Mostly Cloudy
9:45 PM 8.6 °F -6.3 °F 6.8 °F 92% 29.87 in 10.0 mi South 11.5 mph - N/A   Overcast
10:05 PM 10.4 °F -6.0 °F 8.6 °F 92% 29.85 in 10.0 mi South 15.0 mph - N/A   Overcast
10:25 PM 14.0 °F -1.4 °F 10.4 °F 86% 29.85 in 10.0 mi South 15.0 mph - N/A   Overcast
10:45 PM 15.8 °F 0.3 °F 10.4 °F 79% 29.85 in 10.0 mi SSW 16.1 mph - N/A   Overcast
11:05 PM 17.6 °F 2.2 °F 10.4 °F 73% 29.85 in 10.0 mi SSW 17.3 mph - N/A   Overcast
11:25 PM 17.6 °F 3.7 °F 10.4 °F 73% 29.85 in 10.0 mi SSW 13.8 mph - N/A   Overcast
11:45 PM 17.6 °F 4.3 °F 10.4 °F 73% 29.85 in 10.0 mi SSW 12.7 mph - N/A   Overcast